Погода в Раздолье

Россия / Владимирская область     56°16′21″N   39°27′21″E
темп.,
°C
ветер,
м/с
пор.,
м/с
влажн.,
%
обл.,
%
осадки,
мм/ч
давл.,
гПа
погр.,
м
5 августа, чт
чт500:00+14з116792 0.0 101710
03:00+13ююв117241 0.0 101710
06:00+15ююз1168100 0.0 101830
09:00+19ююз125455 0.0 1017460
12:00+23ююз2340100 0.0 10172156
15:00+23ю1341100 0.0 10161528
18:00+21ю2357100 0.0 101572
21:00+14св359789 2.6 1015124
6 августа, пт
пт600:00+14в279695 0.1 1014156
03:00+14юв2694100 0.1 1013159
06:00+14ю2795100 0.6 1013232
09:00+15ю31095100 0.6 1013405
12:00+16ююв3796100 0.6 1013333
15:00+16ююв3899100 8.7 1014393
18:00+15в2397100 2.2 101281
21:00+15всв3896100 2.2 1012229
7 августа, сб
сб700:00+16в41396100 0.2 1012406
03:00+15в4997100 0.3 1011290
06:00+15в3898100 0.9 1011285
09:00+19юв358864 1.5 1011393
12:00+25ююв3562100 0.1 1011707
15:00+21ю378492 0.2 1012332
18:00+23в2578100 0.0 1011168
21:00+21в387699 0.0 1011160
8 августа, вс
вс800:00+22ююв41660100 0.0 1011531
03:00+18ю3126894 0.0 1011301
06:00+17ю2391100 0.7 101155
09:00+20зюз2487100 1.0 1012323
12:00+22з3378100 0.1 1012852
15:00+23зюз246744 0.1 1013980
18:00+23зюз25540 0.0 1013541
21:00+17зсз39780 0.0 1015222
9 августа, пн
пн900:00+15з248630 0.0 101567
03:00+14з239195 0.0 101551
06:00+15з268999 0.0 1016163
09:00+20з356554 0.0 1016653
12:00+24зсз455031 0.0 10151753
15:00+25сз344417 0.0 10151965
18:00+24с23565 0.0 1014200
21:00+18сз117191 0.0 101511